sat.trackr.live / text

‹ back to catalog

STARLINK-4470

NORAD 53655 · 2022-105H

PAYLOAD ACTIVE UNKNOWN

§ Identity

Operator
Country
US
Launch date
2022-08-31
Launch site
AFWTR
Launch vehicle
Mass (kg)
RCS (m²)

Purposes: comms

External: N2YO · Heavens-Above · Gunter

§ Orbital elements

Epoch: 2026-05-25T04:00:03.998880Z

Period
93.33 min
Inclination
97.6021°
Eccentricity
0.0001721
Mean motion
15.42886576 rev/d
Perigee alt
436.4 km
Apogee alt
438.8 km
Semi-major
6,815.7 km
B*
2.1840e-3
RAAN
28.3403°
Arg perigee
92.9882°
Mean anomaly
119.9747°
Rev number
583

§ Raw data

STARLINK-44701 53655U 22105H   26145.16671295  .00096882  00000+0  21840-2 0  99982 53655  97.6021  28.3403 0001721  92.9882 119.9747 15.42886576  5836

JSON: /api/v1/satellites/53655 · /tle

For live sub-satellite position, see the globe view (requires WebGL).

§ Visibility from observer

Set your observer location to see the next 7 days of passes ≥ 10°. The values pass through the URL so the page stays shareable.

No JS? Fill the form by hand. The geolocation button needs JavaScript.